Regional Weather Roundup
Issued by NWS Grand Forks, ND

Home | Current Version | Previous Version | Graphics & Text | Print | Product List | Glossary On
Versions: 1 2 3 4 5 6 7 8 9 10 11 12 13 14 15 16 17 18 19 20 21 22 23 24 25 26 27 28 29 30 31 32 33 34 35 36 37 38 39 40 41 42 43 44 45 46 47 48 49 50
000
ASUS43 KFGF 230410
RWRFGF
PRAIRIE TO PINES  WEATHER ROUNDUP
NATIONAL WEATHER SERVICE EASTERN NORTH DAKOTA/GRAND FORKS ND
1100 PM CDT MON SEP 22 2014

 **SATELLITE DATA USED TO AUGMENT SKY COVER AT AUTOMATED STATIONS**
 *****  WEATHER ACROSS EASTERN NORTH DAKOTA  *****

CITY           SKY/WX    TMP DP  RH WIND       PRES   REMARKS
GRAND FORKS    CLEAR     58  49  72 SE7       30.03S
GRAND FRKS AFB CLEAR     55  49  79 S7        30.03S
GRAND FRKS NWS   N/A     59 N/A N/A SE5         N/A
DEVILS LAKE    CLEAR     57  48  72 SE6       29.99S
FARGO          CLEAR     62  48  60 SE9       30.06S
WAHPETON ARPT  CLEAR     54  46  76 SE7       30.09R
$$

 ***** WEATHER ACROSS CENTRAL AND WESTERN NORTH DAKOTA  *****

CITY           SKY/WX    TMP DP  RH WIND       PRES   REMARKS
BISMARCK       CLEAR     62  50  64 E10       29.94F
MINOT          CLEAR     60  48  64 SE6       29.92F
JAMESTOWN      CLEAR     59  48  67 S10       30.01F
MINOT AFB      CLEAR     57  50  76 SE7       29.91F
GARRISON         N/A     59  50  72 SE6       29.93S
WILLISTON      CLEAR     67  50  54 CALM      29.88S
DICKINSON      CLEAR     61  49  64 SE12      29.89S
HETTINGER      CLEAR     60  51  72 SE8       29.91S
$$

 *****  OTHER AIRPORT OBSERVATIONS IN OUR AREA  *****

CITY           SKY/WX    TMP DP  RH WIND       PRES   REMARKS
WALHALLA       NOT AVBL
GRAFTON AIRPOR FAIR      54  46  76 SE6       30.02S
VALLEY CITY AR FAIR      57  48  72 S7        30.04S
CANDO          FAIR      54  48  82 SE8       30.00S
CAVALIER APRT  FAIR      54  48  82 S5        30.01S
GWINNER        CLEAR     63  48  59 S12       30.06S
SHEYENNE NWR     N/A     53  47  81 SE5       29.95
ROLLA          FAIR      55  46  71 S6        30.00S
 ***** THE ABOVE OBSERVATIONS ARE NON NWS ARE NOT QUALITY
       CONTROLLED AND MAY MIS-REPORT RAIN FOR SNOW...
$$

  *****  WEATHER ACROSS NORTHERN MINNESOTA  *****

CITY           SKY/WX    TMP DP  RH WIND       PRES   REMARKS
FLAG ISLAND    CLEAR     59  54  82 S3        30.05S
WARROAD        CLEAR     55  52  88 CALM      30.08R
ROSEAU         CLEAR     54  48  82 S7        30.06S
HALLOCK        CLEAR     54  48  82 S9        30.03R
THF RVR FALLS  CLEAR     57  48  72 SE8       30.07S
BAUDETTE       CLEAR     52  50  93 CALM      30.08S
WASKISH        CLEAR     50  48  93 CALM      30.10S
CROOKSTON      CLEAR     55  48  76 SE9       30.06S
STEPHEN NDAWN    N/A     55  50  82 SE8         N/A
GREENBUSH NDAW   N/A     55  50  82 S7          N/A
$$
  *****  WEATHER ACROSS CENTRAL AND WEST MINNESOTA  *****

CITY           SKY/WX    TMP DP  RH WIND       PRES   REMARKS
FOSSTON        CLEAR     57  52  82 SE7       30.10S
BEMIDJI        CLEAR     52  47  83 S6        30.12R
PARK RAPIDS    CLEAR     56  49  77 SE3       30.12S
ELBOW LAKE     FAIR      56  49  78 SE7       30.11S
WADENA         CLEAR     52  46  82 S3        30.13S
DETROIT LAKES  CLEAR     57  50  77 S8        30.12S
MOORHEAD       CLEAR     59  52  77 S8        30.08S
FERGUS FALLS   CLEAR     59  46  63 SE7       30.11R
MORRIS MN      CLEAR     54  48  82 SE7       30.11S
STAPLES        CLEAR     52  48  87 CALM      30.14S
$$
  *****  WEATHER ELSEWHERE ACROSS MINNESOTA  *****

CITY           SKY/WX    TMP DP  RH WIND       PRES   REMARKS
DULUTH         CLEAR     57  49  74 W7        30.15R
INTRNTL FALLS  CLEAR     47  46  97 CALM      30.10R
ELY            CLEAR     52  48  87 SW5       30.13R
CLOQUET        CLEAR     55  48  76 SW5       30.16R
WHEATON        CLEAR     50  46  87 SE7       30.11S
BRAINERD       CLEAR     49  49 100 CALM      30.15S
HIBBING        CLEAR     46  45  96 CALM      30.14R
ALEXANDRIA     CLEAR     55  49  80 SE6       30.15R
SAINT CLOUD    CLEAR     54  50  86 CALM      30.16R
MINNEAPOLIS    CLEAR     61  50  67 S6        30.18R
$$

  *****  WEATHER ACROSS SOUTH DAKOTA  *****

CITY           SKY/WX    TMP DP  RH WIND       PRES   REMARKS
SIOUX FALLS    MOCLDY    61  49  64 S9        30.15S
BROOKINGS      NOT AVBL
WATERTOWN      CLEAR     56  48  74 S12       30.11S
HURON          PTCLDY    64  49  57 S10       30.07S
SISSETON         N/A     54  49  83 S6        30.06F
ABERDEEN       CLEAR     62  49  62 S14       30.04S
MITCHELL       CLOUDY    65  52  62 SE12      30.09S
PIERRE         CLOUDY    63  53  70 S18       29.98S
MOBRIDGE       PTCLDY    67  54  63 S16G25    29.94S
RAPID CITY     CLOUDY    63  55  75 S5        29.95S
$$

  *****  SOME WEATHER IN NEARBY STATES *****

CITY           SKY/WX    TMP DP  RH WIND       PRES   REMARKS
GLASGOW MT     CLEAR     61  47  59 E7        29.83S
GREAT FALLS MT PTCLDY    68  48  48 SW12      29.92R
CHEYENNE WY    PTCLDY    59  43  55 W17       30.16F
SCOTTSBLUFF NE PTCLDY    57  56  96 SE6       30.04F
OMAHA NE       CLOUDY    62  51  67 SE8       30.19S
DES MOINES IA  PTCLDY    59  51  75 S8        30.22S
DAVENPORT IA   CLEAR     51  45  79 CALM      30.26S
CHICAGO IL     CLEAR     55  46  71 S7        30.27R
EAU CLAIRE WI  CLEAR     50  48  93 CALM      30.20R
LA CROSSE WI   CLEAR     53  50  89 SE6       30.21S
$$

  *****  SOME NATIONAL WEATHER *****

CITY           SKY/WX    TMP DP  RH WIND       PRES   REMARKS
LA GUARDIA NY  PTCLDY    57  41  55 NW14G22   30.16R
RALEIGH NC     CLOUDY    64  57  78 NE5       30.16S
ATLANTA GA     PTCLDY    66  52  60 NE8       30.12S
NEW ORLEANS LA CLEAR     79  56  45 NE20G28   30.05R
OKLAHOMA CITY  PTCLDY    64  50  60 E8        30.19F
ALBUQUERQUE NM CLOUDY    66  62  87 S6        30.26S
SALT LAKE CITY MOCLDY    68  53  58 S6        30.10S
LOS ANGELES CA PTCLDY    67  64  90 W7        29.93R
BOISE ID       CLEAR     72  49  44 SE7       29.98S
SEATTLE WA     CLOUDY    65  54  67 W3        29.93F
$$

*** WEATHER ACROSS MANITOBA...SASKATCHEWAN AND ONTARIO ***
                ***ONTARIO***

CITY           SKY/WX    TMP DP  RH WIND       PRES   REMARKS
GERALDTON      MOCLDY    57  55  94 CALM      29.98R
THUNDER BAY    CLEAR     52  48  87 SW6       30.04R
SIOUX LOOKOUT  CLEAR     57  50  77 VRB2      30.04R
TORONTO        PTCLDY    46  41  81 W5        30.21R
BIG TROUT LK   MOCLDY    45  43  93 E5        30.06R FOG
PICKLE LAKE    NOT AVBL
DRYDEN         CLEAR     57  50  77 SW8       30.06R
KENORA         CLEAR     59  50  72 SW6       30.07R
$$
                *** MANITOBA***

CITY           SKY/WX    TMP DP  RH WIND       PRES   REMARKS
BRANDON        CLEAR     57  46  67 SE8       29.96S
DAUPHIN        CLEAR     50  45  81 VRB2      29.92S
ISLAND LAKE    PTCLDY    55  52  88 E6        29.99R
PILOT MOUND      N/A     55  46  71 S8          N/A
THE PAS        CLEAR     57  50  77 SE10      29.81S
THOMPSON       CLOUDY    50  48  93 E8        29.93S
WINNIPEG       CLEAR     61  48  63 S13       30.00S
LYNN LAKE      CLEAR     52  48  87 SE10      29.78F
CHURCHILL      PTCLDY    36  32  87 SE13      30.07F
GILLAM         CLEAR     41  39  93 E6        30.02F
$$
                ***SASKATCHEWAN***

CITY           SKY/WX    TMP DP  RH WIND       PRES   REMARKS
ESTEVAN        CLEAR     55  50  82 SE7       29.89F
KINDERSLEY     NOT AVBL
LLOYDMINSTER   CLEAR     59  46  63 SW9       29.73S
PRINCE ALBERT  PTCLDY    59  46  63 NE5       29.74S
REGINA         CLEAR     61  48  63 SE13      29.85S
YORKTON        CLEAR     59  48  67 S9        29.88F
N. BATTLEFORD  CLEAR     55  46  71 S5        29.74S
LA RONGE       CLEAR     63  50  63 S8        29.69F
SASKATOON      CLEAR     61  50  67 S10       29.76S
SWIFT CURRENT  CLEAR     63  50  63 S15       29.81S
$$
NOTE: THESE ARE AUTOMATED STATIONS WITH LIMITED QUALITY CONTROL
      "FAIR" INDICATES FEW OR NO CLOUDS BELOW 12,000 FEET WITH NO
      SIGNIFICANT WEATHER AND/OR OBSTRUCTIONS TO VISIBILITY.
      SKY/WX - SKY CONDITION AND SIGNIFICANT WEATHER.
      TMP - AIR TEMPERATURE.    DP   - DEWPOINT TEMPERATURE.
      RH  - RELATIVE HUMIDITY.  PRES - PRESSURE.
      HX  - HEAT INDEX.         WCI  - WIND CHILL INDEX.
$



USA.gov is the U.S. government's official web portal to all federal, state and local government web resources and services.